Cape Race, Canada

11:26 PM NST on November 23, 2017 (GMT -0330)
Cape Race

Weather History for CWRA - November, 2012

Change the Weather History Date:

Thursday, November 8, 2012

  Actual Average Record
Temperature  
Mean Temperature 44 °F -  
Max Temperature 46 °F - - ()
Min Temperature 41 °F - - ()
Degree Days  
Heating Degree Days 22    
Moisture  
Dew Point 44 °F    
Average Humidity 97    
Maximum Humidity 100    
Minimum Humidity 89    
Precipitation  
Precipitation 0.47 in - - ()
Sea Level Pressure  
Sea Level Pressure 30.04 in    
Wind  
Wind Speed 26 mph ()    
Max Wind Speed 37 mph    
Max Gust Speed 45 mph    
T = Trace of Precipitation, MM = Missing Value Source: Averaged Metar Reports

Daily Weather History Graph

Daily Weather History Graph

Search for Another Location

Airport or City:

Trip Planner

Search our weather history database for the weather conditions in past years. The results will help you decide how hot, cold, wet, or windy it might be!

Date:

Astronomy

Nov. 08, 2012 Rise Set
Actual Time 6:55 AM NST 4:36 PM NST
Civil Twilight 6:22 AM NST 5:08 PM NST
Nautical Twilight 5:46 AM NST 5:44 PM NST
Astronomical Twilight 5:11 AM NST 6:20 PM NST
Moon 12:22 AM NST (11/8) 1:33 PM NST (11/8)
Length of Visible Light 10h 45m
Length of Day
9h 41m
Waning Crescent, 33% of the Moon is Illuminated
Nov 8
Waning Crescent
Nov 13
New
Nov 20
First Quarter
Nov 28
Full
Dec 6
Last Quarter

Hourly Weather History & Observations

Time (NST) Temp. Windchill Dew Point Humidity Pressure Visibility Wind Dir Wind Speed Gust Speed Precip Events Conditions
12:30 AM 42.3 °F 32.2 °F 39.2 °F 89% 30.22 in - ENE 26.5 mph - 0.04 in   Unknown
1:30 AM 42.6 °F 31.9 °F 40.5 °F 92% 30.18 in - ENE 31.1 mph 39.1 mph 0.09 in   Unknown
2:30 AM 43 °F - 42 °F 92% 30.12 in - ENE 36.8 mph - -  
2:30 AM 43.3 °F 32.0 °F 41.5 °F 93% 30.12 in - ENE 36.8 mph 44.9 mph 0.09 in   Unknown
3:30 AM 43.2 °F 32.3 °F 41.7 °F 95% 30.11 in - ENE 33.4 mph 42.6 mph 0.12 in   Unknown
4:30 AM 45.0 °F 35.4 °F 44.1 °F 97% 30.11 in - East 28.8 mph 36.8 mph 0.08 in   Unknown
5:30 AM 46 °F - 45 °F 94% 30.09 in - ENE 26.5 mph - -  
5:30 AM 45.5 °F 36.5 °F 44.8 °F 97% 30.09 in - ENE 26.5 mph 35.7 mph 0.05 in   Unknown
6:30 AM 45.3 °F 36.3 °F 44.8 °F 98% 30.08 in - ENE 26.5 mph 35.7 mph 0.09 in   Unknown
7:30 AM 45.3 °F 36.3 °F 44.8 °F 98% 30.09 in - NE 26.5 mph 35.7 mph 0.07 in   Unknown
8:30 AM 44 °F - 44 °F 98% 30.09 in - NE 32.2 mph - -  
8:30 AM 44.2 °F 33.9 °F 43.7 °F 98% 30.09 in - NE 32.2 mph 41.4 mph 0.05 in   Unknown
9:30 AM 45.0 °F 34.6 °F 44.6 °F 99% 30.07 in - NE 34.5 mph 44.9 mph N/A   Unknown
10:30 AM 45.0 °F 34.9 °F 44.6 °F 99% 30.06 in - NE 32.2 mph 41.4 mph N/A   Unknown
11:30 AM 44 °F - 44 °F 100% 30.03 in - NE 28.8 mph - -  
11:30 AM 44.4 °F 34.7 °F 44.1 °F 99% 30.03 in - NE 28.8 mph 39.1 mph N/A   Unknown
12:30 PM 44.1 °F 33.7 °F 43.7 °F 99% 30.01 in - NE 32.2 mph 40.3 mph N/A   Unknown
1:30 PM 44.4 °F 34.7 °F 44.1 °F 99% 30.01 in - NE 28.8 mph 38.0 mph N/A   Unknown
2:30 PM 44 °F - 44 °F 99% 30.00 in - NE 29.9 mph - -  
2:30 PM 44.2 °F 34.2 °F 43.9 °F 99% 30.00 in - NE 29.9 mph 38.0 mph N/A   Unknown
3:30 PM 44.4 °F 34.7 °F 44.1 °F 99% 30.01 in - NE 28.8 mph 39.1 mph 0.04 in   Unknown
4:30 PM 44.6 °F 35.1 °F 44.2 °F 99% 30.01 in - NE 27.6 mph 35.7 mph N/A   Unknown
5:30 PM 45 °F - 44 °F 97% 29.97 in - NE 25.3 mph - -  
5:30 PM 44.8 °F 35.7 °F 44.4 °F 99% 29.97 in - NE 25.3 mph 34.5 mph N/A   Unknown
6:30 PM 45.0 °F 35.8 °F 44.8 °F 99% 30.00 in - NE 26.5 mph 33.4 mph N/A   Unknown
7:30 PM 45.0 °F 35.6 °F 44.6 °F 99% 29.97 in - NNE 27.6 mph 35.7 mph N/A   Unknown
8:30 PM 44 °F - 44 °F 100% 29.99 in - NE 23.0 mph - -  
8:30 PM 44.4 °F 35.7 °F 44.1 °F 99% 29.99 in - NE 23.0 mph 29.9 mph N/A   Unknown
9:30 PM 45.1 °F 37.3 °F 44.8 °F 99% 29.99 in - NE 19.6 mph 26.5 mph N/A   Unknown
10:30 PM 45.5 °F 38.1 °F 45.1 °F 99% 29.95 in - NE 18.4 mph - N/A   Unknown
11:30 PM 46 °F - 46 °F 97% 29.91 in - NE 21.9 mph - -  
11:30 PM 45.7 °F 37.6 °F 45.5 °F 99% 29.91 in - NE 21.9 mph 27.6 mph N/A   Unknown